Regional Weather Roundup
Issued by NWS Charleston, WV

Home | Current Version | Previous Version | Graphics & Text | Print | Product List | Glossary On
Versions: 1 2 3 4 5 6 7 8 9 10 11 12 13 14 15 16 17 18 19 20 21 22 23 24 25 26 27 28 29 30 31 32 33 34 35 36 37 38 39 40 41 42 43 44 45 46 47 48 49 50
000
ASUS41 KRLX 172310
RWRRLX
West Virginia Regional Weather Roundup
National Weather Service Charleston WV
700 PM EDT WED SEP 17 2014

Note: "fair" indicates few or no clouds below 12,000 feet with no
significant weather and/or obstructions to visibility.

WVZ003-180000-
Northern Panhandle of West Virginia

CITY           SKY/WX    TMP DP  RH WIND       PRES   REMARKS
WHEELING       PTCLDY    65  49  56 NW5       29.97F
$$

WVZ009-180000-
Northwest West Virginia

CITY           SKY/WX    TMP DP  RH WIND       PRES   REMARKS
PARKERSBURG    CLEAR     68  51  54 VRB3      29.99S
$$

WVZ006-180000-
Western West Virginia

CITY           SKY/WX    TMP DP  RH WIND       PRES   REMARKS
HUNTINGTON     PTCLDY    67  55  65 SE3       29.96F
$$

WVZ015-180000-
West Central West Virginia

CITY           SKY/WX    TMP DP  RH WIND       PRES   REMARKS
CHARLESTON     MOCLDY    67  57  70 W5        29.97S
$$

WVZ031-180000-
North Central West Virginia

CITY           SKY/WX    TMP DP  RH WIND       PRES   REMARKS
CLARKSBURG     PTCLDY    68  51  54 NW5       29.97S
MORGANTOWN     MOCLDY    70  47  43 CALM      29.98F
$$

WVZ035-042-045-180000-
South Central West Virginia

CITY           SKY/WX    TMP DP  RH WIND       PRES   REMARKS
BECKLEY        MOCLDY    65  55  70 N3        30.00R
BLUEFIELD      MOCLDY    64  56  75 CALM      30.01S
LEWISBURG      PTCLDY    65  54  65 CALM      30.00R
$$

WVZ047-180000-
Northern Mountains of West Virginia

CITY           SKY/WX    TMP DP  RH WIND       PRES   REMARKS
ELKINS         CLOUDY    65  52  62 NW5       30.00S
$$

WVZ052-180000-
Eastern Panhandle of West Virginia

CITY           SKY/WX    TMP DP  RH WIND       PRES   REMARKS
MARTINSBURG    PTCLDY    66  50  56 E3        29.97S
PETERSBURG     CLOUDY    69  51  52 N3        29.97R
$$


USA.gov is the U.S. government's official web portal to all federal, state and local government web resources and services.